Location: Godiavel Galaoual
(15.2485°N, 12.6604°W)
Time: 02:46:04
(UTC+00:00)

ISS - Pass Details

Date: 18 May 2021
Orbit: 417 x 422 km, 51.6° (Epoch: 22 June)

Event Time Altitude Azimuth Distance (km) Brightness Sun altitude
Exits shadow 05:49:01 - 292° (WNW) 2,053 -0.7 -8.0°
Reaches altitude 10° 05:50:53 10° 273° (W) 1,495 -1.5 -7.6°
Maximum altitude 05:52:55 15° 236° (SW) 1,220 -2.0 -7.2°
Drops below altitude 10° 05:54:56 10° 198° (SSW) 1,494 -1.3 -6.7°
Sets 05:57:40 0° 174° (S) 2,356 -0.1 -6.1°
